Regional Weather Roundup
Issued by NWS

Home | Current Version | Previous Version | Graphics & Text | Print | Product List | Glossary On
Versions: 1 2 3 4 5 6 7 8 9 10 11 12 13 14 15 16 17 18 19 20 21 22 23 24 25 26 27 28 29 30 31 32 33 34 35 36 37 38 39 40 41 42 43 44 45 46 47 48 49 50
000
ASUS43 KDMX 211301
RWRIA

WEATHER ROUNDUP FOR IOWA
NATIONAL WEATHER SERVICE DES MOINES IA
800 AM CDT MON MAY 21 2018

NOTE: "FAIR" INDICATES FEW OR NO CLOUDS BELOW 12,000 FEET WITH NO
SIGNIFICANT WEATHER AND/OR OBSTRUCTIONS TO VISIBILITY.

* - THESE STATIONS ARE NOT NWS STATIONS...THUS NOT UNDER NWS
QUALITY CONTROL.  THEY ALSO DO NOT REPORT WEATHER SUCH
AS PRECIPITATION OR FOG.

IAZ001>003-012>014-020>022-031>034-043>046-211400-
   NORTHWEST IOWA

CITY           SKY/WX    TMP DP  RH WIND       PRES   REMARKS
CARROLL *      CLOUDY   N/A N/A N/A SE7       30.04  FOG
CHEROKEE *     FOG       56  56 100 SE5       30.04  VSB 1/2
DENISON *      FOG       57  57 100 CALM      30.06  VSB 3/4
LE MARS *      CLOUDY    57  57 100 SE3       30.04  FOG
SIOUX CITY     FOG       55  54  96 NW6       30.04S VSB 1
SPENCER        CLOUDY    57  55  93 SE5       30.05R FOG
STORM LAKE *   FOG       55  55 100 SE6       30.04  VSB<1/4
$$

IAZ055>058-069>071-079>083-090>094-211400-
   SOUTHWEST IOWA

CITY           SKY/WX    TMP DP  RH WIND       PRES   REMARKS
ATLANTIC *     CLOUDY    59  59 100 CALM      30.04  FOG
CLARINDA *     CLOUDY    61  59  94 W7        30.06  FOG
COUNCIL BLFS * CLOUDY    55  55 100 CALM      30.05  FOG
CRESTON *      FOG       59  59 100 CALM      30.04  VSB 1/2
LAMONI         CLOUDY    60  59  96 NW5       30.02S FOG
RED OAK *      CLOUDY    59  59 100 W8        30.04  FOG
SHENANDOAH *   CLOUDY    57  57 100 W7        30.05  FOG
$$

IAZ047>049-059>061-072>074-084-211400-
   CENTRAL IOWA

CITY           SKY/WX    TMP DP  RH WIND       PRES   REMARKS
AMES           CLOUDY    58  56  93 E7        30.03R
ANKENY *       CLOUDY    59  57  94 CALM      30.03  FOG
BOONE *        CLOUDY    57  57 100 E7        30.03  FOG
CHARITON *     CLOUDY    59  59 100 N6        30.01  FOG
DES MOINES     CLOUDY    59  57  93 E5        30.02R FOG
GRINNELL*      LGT RAIN  55  55  97 E12       30.03
KNOXVILLE *    FOG       59  59 100 NE5       30.00  VSB 1
MARSHALLTOWN   CLOUDY    56  56 100 E12       30.02F
NEWTON *       CLOUDY    57  57 100 E9        30.02  FOG
PERRY *        CLOUDY    59  58  98 E6        30.04  FOG
$$

IAZ004>006-015-016-023>025-035-036-211400-
   NORTH CENTRAL IOWA

CITY           SKY/WX    TMP DP  RH WIND       PRES   REMARKS
ALGONA *       CLOUDY    57  55  94 E9G15     30.05  FOG
CLARION *      CLOUDY    57  54  88 E10       30.05  FOG
ESTHERVILLE    CLOUDY    54  54 100 SE9       30.05S FOG
FORT DODGE *   CLOUDY    57  56  96 E7        30.05R
MASON CITY     CLOUDY    55  53  93 SE10      30.07S
FOREST CITY *  CLOUDY    55  55 100 SE7       30.06
WEBSTER CITY * CLOUDY    57  57 100 E9        30.02  FOG
$$

IAZ007>011-017>019-026>030-037>042-050>054-066-211400-
   NORTHEAST IOWA

CITY           SKY/WX    TMP DP  RH WIND       PRES   REMARKS
CEDAR RAPIDS   CLOUDY    54  54 100 E8        30.04F FOG
CLINTON *      LGT RAIN  54  54 100 SE10      30.09R
DECORAH *      LGT RAIN  52  52 100 E9        30.08
DUBUQUE        CLOUDY    52  51  97 NE6       30.08F FOG
MONTICELLO *   RAIN      55  55 100 E6        30.06
WATERLOO       LGT RAIN  53  53 100 E8        30.04F
$$

IAZ064-065-067-068-078-211400-
   EAST CENTRAL IOWA

CITY           SKY/WX    TMP DP  RH WIND       PRES   REMARKS
DAVENPORT      CLOUDY    54  52  93 SE13      30.10R
IOWA CITY      CLOUDY    56  54  93 E6        30.06S
QUAD CITIES    CLOUDY    56  53  90 E12       30.07R
$$

IAZ062-063-075>077-085>089-095>099-211400-
   SOUTHEAST IOWA

CITY           SKY/WX    TMP DP  RH WIND       PRES   REMARKS
BURLINGTON     CLOUDY    59  57  93 E7        30.03F FOG
FAIRFIELD *    CLOUDY    59  59 100 E9        30.01  FOG
FORT MADISON * CLOUDY    61  61 100 E3        30.04  FOG
KEOKUK *       CLOUDY    63  63 100 E8        30.02  FOG
OSKALOOSA *    CLOUDY    56  56  99 E10       30.01  FOG
OTTUMWA        LGT RAIN  59  58  96 E10       30.00S FOG
WASHINGTON *   CLOUDY    57  57 100 E12       30.04  FOG
$$

ABBREVIATIONS USED IN REMARKS
   TC - TEMPERATURES IN CELSIUS
  WCI - WIND CHILL INDEX
   HX - HEAT INDEX
  VSB - VISIBILITY
$$




USA.gov is the U.S. government's official web portal to all federal, state and local government web resources and services.